Simultaneous Nadir Overpasses (SNOs) Predictions

Prediction of SNOs between AURA and NPP Satellite Orbit:

Table of predicted SNOs for the next 14.0 days since TLE Epoch: 4/27/2024
Index Date (AURA) Time (AURA) Lat,Lon (AURA) SZA (AURA ) Date (NPP) Time (NPP) Lat,Lon (NPP) SZA (NPP ) Distance(km) Time Diff (sec)
1 04/28/2024 16:29:32 -80.56, 20.45 104.01 04/28/2024 16:29:19 -80.56, 20.59 104.02 2.66 13
2 04/28/2024 17:18:52 80.66,-170.75 75.80 04/28/2024 17:19:59 80.66,-170.59 75.72 2.81 67
3 05/01/2024 06:14:13 80.55, -5.80 75.22 05/01/2024 06:13:58 80.55, -5.77 75.23 0.56 15
4 05/01/2024 07:03:34 -80.64, 162.86 104.96 05/01/2024 07:04:40 -80.63, 162.71 104.98 2.76 66
5 05/03/2024 19:58:50 -80.57, -31.65 105.59 05/03/2024 19:58:35 -80.58, -31.54 105.60 2.07 15
6 05/03/2024 20:48:10 80.67, 137.10 74.22 05/03/2024 20:49:15 80.67, 137.22 74.16 2.29 65
7 05/06/2024 09:43:26 80.56, -57.90 73.70 05/06/2024 09:43:13 80.57, -57.85 73.70 0.92 13
8 05/06/2024 10:32:47 -80.65, 110.77 106.48 05/06/2024 10:33:55 -80.65, 110.68 106.51 1.75 68
9 05/08/2024 23:28:00 -80.56, -84.01 107.00 05/08/2024 23:27:52 -80.56, -84.14 106.97 2.55 8



Historial Predications of SNOs between AURA and NPP
